Regional Weather Roundup
Issued by NWS Sterling, VA

Home | Current Version | Previous Version | Text Only | Print | Product List | Glossary Off
Versions: 1 2 3 4 5 6 7 8 9 10 11 12 13 14 15 16 17 18 19 20 21 22 23 24 25 26 27

000
ASUS41 KLWX 252310
RWRLWX

REGIONAL WEATHER ROUNDUP
NATIONAL WEATHER SERVICE BALTIMORE MD/WASHINGTON DC
600 PM EST SAT FEB 25 2017

Note: "FAIR" indicates few or no clouds below 12,000 feet
with no significant weather and/or obstructions to visibility.
 TC=TEMPERATURE CELSIUS

 * =Non NWS site. Station does not report precipitation (e.g. rain,
    snow, etc.), thunder, or fog.

DCZ001-MDZ009-015-VAZ040>042-051-053>054-260000-
WASHINGTON METRO

CITY           SKY/WX    TMP DP  RH WIND       PRES   REMARKS
WASHINGTON NAT MOCLDY    56  40  55 NW15G29   29.60R
DULLES         PTCLDY    54  36  50 NW15G24   29.60R
ANDREWS AFB    PTCLDY    54  40  59 NW18G29   29.58R
FT BELVOIR     PTCLDY    56  40  56 NW10G20   29.60R
QUANTICO       CLOUDY    59  46  62 N9        29.59R
COLLEGE PARK*  PTCLDY    54  37  54 NW14G23   29.60R
LEESBURG*      PTCLDY    54  41  62 MISG      29.62R
MANASSAS*      CLOUDY    56  41  57 NW14G21   29.60R
GAITHERSBURG*  PTCLDY    52  36  54 NW17G29   29.64R

$$

MDZ006>007-011-014-260000-
BALTIMORE METRO

CITY           SKY/WX    TMP DP  RH WIND       PRES   REMARKS
BWI AIRPORT    MOCLDY    53  40  61 NW17      29.59R
MD SCIENCE CTR   N/A     57  38  48 MISG      29.59R
MARTIN STATE   MOCLDY    55  48  76 W20       29.61R
ANNAPOLIS      MOCLDY    55  44  66 NW14G22   29.58R
FORT MEADE*    MOCLDY    52  41  66 W12G21    29.62S

$$

MDZ012-015-019>023-260000-
MARYLAND EASTERN SHORE

CITY           SKY/WX    TMP DP  RH WIND       PRES   REMARKS
OCEAN CITY     CLOUDY    56  53  90 SW14G22   29.51F
SALISBURY      HVY RAIN  62  59  90 S14       29.54R FOG
BAY BRIDGE AP* CLOUDY    54  45  71 NW10G21   29.60R
CAMBRIDGE*     CLOUDY    55  48  76 NW14      29.60R

$$

MDZ017>025-260000-
SOUTHERN MARYLAND

CITY           SKY/WX    TMP DP  RH WIND       PRES   REMARKS
PATUXENT RIVER MOCLDY    56  51  84 N17       29.56R
ST INIGOES     CLOUDY    59  52  77 N9G20     29.56R THUNDER
LEONARDTOWN*   CLOUDY    54  48  82 NW8G16    29.59R

$$

MDZ003>005-260000-
NORTH CENTRAL MARYLAND

CITY           SKY/WX    TMP DP  RH WIND       PRES   REMARKS
FREDERICK*       N/A     52  41  66 W10       29.64R
HAGERSTOWN APT CLEAR     51  38  60 W14G25    29.61R
WESTMINSTER*   CLOUDY    52  43  71 W12G22    29.61R

$$

MDZ501>502-260000-
WESTERN MARYLAND

CITY           SKY/WX    TMP DP  RH WIND       PRES   REMARKS
OAKLAND*       CLOUDY    32  27  80 W13G26    29.68R WCI  22
CUMBERLAND*    PTCLDY    48  27  43 W12G28    29.73R

$$

VAZ025>031-260000-
SHENANDOAH VALLEY

CITY           SKY/WX    TMP DP  RH WIND       PRES   REMARKS
WINCHESTER*    CLEAR     52  27  37 W24G32    29.63R
FRONT ROYAL*   CLEAR     54  30  40 W12G29    29.62R
LURAY*         CLEAR     54  30  40 W20G32    29.65R
NEW MARKET*    CLEAR     53  21  28 W13G28    29.66R
STAUNTON*      CLEAR     51  26  37 W14G22    29.69R
WAYNESBORO*    CLEAR     52  26  36 W9G29     29.66R

$$

WVZ021-048>050-054>055-260000-
EASTERN WEST VIRGINIA PANHANDLE

CITY           SKY/WX    TMP DP  RH WIND       PRES   REMARKS
MARTINSBURG    PTCLDY    53  27  36 W18G31    29.63R
PETERSBURG*    PTCLDY    49  28  43 W29G37    29.70R

$$

VAZ036>039-050-260000-
CENTRAL FOOTHILLS

CITY           SKY/WX    TMP DP  RH WIND       PRES   REMARKS
CHARLOTTESVILL PTCLDY    58  31  35 W10G20    29.61R
CULPEPER*      PTCLDY    59  37  44 NW6       29.61R
ORANGE*        PTCLDY    57  36  44 SW12      29.62R
GORDONSVILLE*  CLEAR     58  36  43 W6G16     29.60R
WARRENTON*     MOCLDY    59  34  38 W10       29.59R

$$

VAZ055>057-260000-
NORTH AND CENTRAL PIEDMONT

CITY           SKY/WX    TMP DP  RH WIND       PRES   REMARKS
FREDERICKSBRG* CLOUDY    63  41  44 W12G18    29.57R
STAFFORD*      CLOUDY    58  41  53 NW12G22   29.63R

$$

NCZ024-NYZ072-PAZ021-071-VAZ022-071-260000-
OTHER REGIONAL OBSERVATIONS

CITY           SKY/WX    TMP DP  RH WIND       PRES   REMARKS
NEW YORK CITY  CLOUDY    57  56  96 S12G20    29.51S
PHILADELPHIA   CLOUDY    55  49  80 NW15G24   29.56R
PITTSBURGH     CLOUDY    36  25  64 W17G29    29.75R WCI  26
ROANOKE        PTCLDY    54  29  38 NW16G23   29.72R
RICHMOND       MOCLDY    63  42  46 W14G28    29.56R
RALEIGH        PTCLDY    74  49  41 SW20G25   29.58R

$$

ANZ530>537-260000-
MARINE OBSERVATIONS

STATION/POSITION TIME  TEMP    WIND        PRES
                       AIR SEA DIR/SP/G
                 (UTC) (F)     (DEG/KT/KT) (MB)
THOMAS PT LIGHT  2300   55 45  320/ 21/ 25   N/A
BALT KEY BRIDGE  2248   55     300/ 19/ 25 1001.8R
COVE POINT       2248   51     350/ 14/ 16 1002.0R
LEWISETTA        2248   58 52   10/  5/  6 1000.6R
SOLOMONS ISLAND  2242   56 46  340/ 13/ 18   N/A
PINEY POINT      2236          360/ 15/ 17   N/A

$$





USA.gov is the U.S. government's official web portal to all federal, state and local government web resources and services.